パンスターズ彗星

C/2020 T4 ( PanSTARRS )

English version
Home page
Updated on July 18, 2021

---------------------------------------------------------------------

・ プロフィール

発見日 2020年10月15日
発見光度 21.0等
発見者 Pan-STARRS 1 telescope (Haleakala)

・ 写真集

・ 軌道要素

Epoch 2021 July 5.0 TT = JDT 2459400.5
T 2021 July 5.25209 TT                                  Rudenko
q   2.1918391            (2000.0)            P               Q
z  -0.0000353      Peri.   79.60572     +0.03254603     -0.63907346
 +/-0.0000030      Node    50.62021     -0.19932585     -0.75756924
e   1.0000773      Incl.   83.81406     +0.97939265     -0.13294344
From 174 observations 2020 Sept. 26-2021 June 17, mean residual 0".4.

・ 光度変化

        m1 = 12.0 + 5 logΔ + 10.0 log r

---------------------------------------------------------------------

軌道要素はM.P.E.C. 2021-N06に掲載されたものです。
光度グラフはComet for Windowsで作成したものです。

---------------------------------------------------------------------

Copyright(C) Seiichi Yoshida (comet@aerith.net). All rights reserved.